sat.trackr.live / text

‹ back to catalog

STARLINK-5290

NORAD 54157 · 2022-141A

PAYLOAD ACTIVE UNKNOWN

§ Identity

Operator
Country
US
Launch date
2022-10-28
Launch site
AFWTR
Launch vehicle
Mass (kg)
RCS (m²)

Purposes: comms

External: N2YO · Heavens-Above · Gunter

§ Orbital elements

Epoch: 2026-05-25T02:26:47.427648Z

Period
95.44 min
Inclination
53.2159°
Eccentricity
0.0001356
Mean motion
15.08833869 rev/d
Perigee alt
538.8 km
Apogee alt
540.7 km
Semi-major
6,917.9 km
B*
-7.6704e-5
RAAN
31.0403°
Arg perigee
88.1801°
Mean anomaly
271.9346°
Rev number
19,725

§ Raw data

STARLINK-52901 54157U 22141A   26145.10193782 -.00001508  00000+0 -76704-4 0  99942 54157  53.2159  31.0403 0001356  88.1801 271.9346 15.08833869197258

JSON: /api/v1/satellites/54157 · /tle

For live sub-satellite position, see the globe view (requires WebGL).

§ Visibility from observer

Set your observer location to see the next 7 days of passes ≥ 10°. The values pass through the URL so the page stays shareable.

No JS? Fill the form by hand. The geolocation button needs JavaScript.